World > North America > United States > Vermont

Joes Pond, Vermont Regional Weather

Lat: 44.46N, Lon: 72.23W
Wx Zone: VTZ007Web Search

Our weather pages are very print friendly and they make great conversation starters.

Feedback


°F Click to change Joes Pond hourly weather to Imperial units.Click to change Joes Pond hourly weather to Metric units. °C
Joes Pond Weather Map
UTC Time: 4/12/2021, 16:21
Your Time:

Joes Pond, VT Regional Weather

Expires:202104121700;;442894
ASUS41 KBTV 121611
RWRBTV
VERMONT REGIONAL WEATHER ROUNDUP
NATIONAL WEATHER SERVICE BURLINGTON VT
1200 PM EDT MON APR 12 2021

NOTE: "FAIR" INDICATES FEW OR NO CLOUDS BELOW 12,000 FEET WITH NO 
SIGNIFICANT WEATHER AND/OR OBSTRUCTIONS TO VISIBILITY.

* THESE REPORTS ARE NOT UNDER NWS QUALITY CONTROL AND/OR DO NOT
  REPORT WEATHER SUCH AS PRECIPITATION AND FOG.


VTZ001>019-121700-
_____VERMONT_
  
CITY           SKY/WX    TMP DP  RH WIND       PRES   REMARKS
BURLINGTON     MOSUNNY   65  39  38 VRB7      29.80F                  
MONTPELIER     CLOUDY    58  40  51 E7        29.85F                  
MORRISVILLE    PTSUNNY   61  42  49 NE10      29.82F                  
ST. JOHNSBURY*   N/A     60  42  51 MISG      29.82S                  
MIDDLEBURY*    CLOUDY    56  40  55 S12G17    29.81F                  
RUTLAND*       CLOUDY    51  42  71 SE14      29.83R                  
SPRINGFIELD    CLOUDY    52  38  58 E8        29.85S                  
HIGHGATE*      PTSUNNY   63  38  40 NE10G18   29.82F                  
NEWPORT*       CLOUDY    58  41  52 SE15G21   29.86S                  
BENNINGTON     CLOUDY    51  40  65 E5        29.80F                  
LAKE EDEN*       N/A     57 N/A N/A NE2         N/A                   

_____LAKE CHAMPLAIN_
  
CITY           SKY/WX    TMP DP  RH WIND       PRES   REMARKS
BURTON ISLAND*   N/A     55  43  62 NW5         N/A                   
COLCHESTER RF*   N/A     54  37  54 NW10        N/A                   
DIAMOND ISL*     N/A     54  37  54 N1          N/A                   

$$


SKY/WX - Weather  TMP - Temperature  DP - Dew Point  RH - Relative Humidity
WIND - Wind Direction/Speed PRES - Barometric Pressure VSB - Visibility
WCI - Wind Chill Index E13G22 Wind - East Wind 13 mph/Gusts of 22 mph